Location: Te Maire Creek
(41.1333°S, 175.9167°E)
Time: 23:33:58
(UTC+00:00)

CZ-4 R/B - Pass Details

Date: 19 May 2024
Orbit: 516 x 570 km, 97.6° (Epoch: 22 June)

Event Time Altitude Azimuth Distance (km) Brightness Sun altitude
Rises 18:50:01 0° 44° (NE) 2,778 6.3 -6.4°
Reaches altitude 10° 18:52:27 10° 58° (ENE) 1,887 5.7 -5.9°
Maximum altitude 18:55:45 24° 111° (ESE) 1,215 3.7 -5.4°
Drops below altitude 10° 18:59:04 10° 165° (SSE) 1,895 4.0 -4.8°
Sets 19:01:31 0° 179° (S) 2,793 4.7 -4.4°
